Total_Precipitation_Accumulation
0.40 0.43 0.47 0.49 0.41 0.36 0.35 0.45 0.53 0.60 0.66 0.77 0.83 0.82 0.74 0.68 0.80 0.90 0.71 0.63 0.76 0.84 0.59 0.37 0.41 0.66 0.69 0.38 0.11 0.24 0.22 0.31 0.33 0.78 0.76 1.01 0.66 0.45 0.32 0.34 1.24 1.43 1.25 0.78 0.85 0.64 0.50
0.40 0.44 0.48 0.43 0.39 0.36 0.40 0.49 0.52 0.60 0.76 0.79 0.86 0.82 0.72 0.69 0.65 0.78 0.62 0.45 0.57 1.09 0.65 0.38 0.54 0.91 0.62 0.23 0.02 0.08 0.20 0.16 0.34 0.76 0.77 1.05 0.67 0.40 0.28 0.35 0.79 1.22 1.56 0.94 0.76 0.65 0.33
0.37 0.45 0.47 0.41 0.38 0.36 0.44 0.57 0.56 0.60 0.69 0.71 0.80 0.71 0.64 0.73 0.68 0.73 0.63 0.60 0.85 1.13 0.60 0.58 0.86 1.00 0.50 0.08 0.03 0.09 0.15 0.23 0.37 0.66 0.89 0.92 0.49 0.43 0.28 0.27 0.25 0.76 1.68 1.34 0.78 0.84 0.41
0.39 0.45 0.47 0.42 0.35 0.36 0.47 0.57 0.55 0.59 0.65 0.69 0.82 0.68 0.68 0.74 0.62 0.60 0.59 0.56 0.82 1.00 0.75 0.74 1.19 1.07 0.34 0.02 0.03 0.03 0.12 0.23 0.29 0.67 0.75 1.04 0.79 0.47 0.32 0.21 0.28 0.50 1.33 1.70 0.95 0.92 0.71
0.43 0.42 0.43 0.40 0.34 0.42 0.56 0.59 0.53 0.54 0.67 0.81 0.86 0.77 0.77 0.68 0.60 0.60 0.52 0.59 0.76 0.74 0.76 1.22 1.10 0.66 0.16 0.04 0.06 0.03 0.14 0.23 0.26 0.72 0.94 1.66 1.53 0.74 0.39 0.42 0.45 0.41 0.57 1.01 1.10 0.81 0.89
0.41 0.43 0.42 0.37 0.37 0.49 0.60 0.62 0.58 0.64 0.78 0.92 0.86 0.78 0.84 0.77 0.76 0.70 0.69 0.84 1.10 1.06 1.02 1.55 0.94 0.81 0.15 0.05 0.14 0.08 0.22 0.30 0.50 1.13 1.72 2.48 1.82 1.19 0.58 0.64 0.50 0.29 0.30 0.31 0.56 0.71 0.68
0.43 0.45 0.41 0.34 0.37 0.47 0.56 0.61 0.58 0.71 0.73 0.82 0.78 0.82 0.86 0.78 0.95 1.11 1.26 1.67 1.48 1.61 1.18 0.81 0.51 0.40 0.17 0.26 0.39 0.27 0.35 0.56 0.97 1.55 1.67 2.33 1.43 1.00 0.42 0.22 0.12 0.15 0.19 0.20 0.16 0.26 0.51
0.47 0.54 0.46 0.44 0.47 0.58 0.62 0.63 0.64 0.76 0.81 0.86 0.80 0.83 0.84 0.81 1.07 1.32 1.32 1.28 0.79 0.82 0.88 0.41 0.36 0.36 0.23 0.48 0.74 0.58 0.40 0.98 1.00 1.25 1.58 2.17 1.01 0.31 0.35 0.26 0.18 0.16 0.13 0.09 0.13 0.16 0.23
0.56 0.56 0.41 0.45 0.50 0.62 0.65 0.63 0.72 0.82 0.88 0.92 0.88 0.94 1.12 1.22 1.35 1.82 1.18 0.79 0.77 1.00 1.26 0.86 0.55 0.48 0.41 0.84 0.78 0.76 0.55 1.14 0.77 1.01 1.56 1.63 0.60 0.35 0.48 0.47 0.28 0.18 0.09 0.06 0.09 0.10 0.11
0.67 0.64 0.57 0.61 0.59 0.63 0.68 0.75 0.96 1.09 1.06 1.06 1.12 1.42 1.54 1.78 2.13 1.27 1.34 0.98 1.04 1.66 2.25 1.23 0.79 0.60 0.72 0.99 0.99 0.56 1.01 1.36 0.69 1.04 1.34 1.19 0.61 0.55 0.70 0.52 0.31 0.25 0.12 0.04 0.08 0.14 0.15
0.77 0.80 0.83 0.75 0.77 0.79 0.78 0.86 0.99 1.02 1.08 1.18 1.52 1.71 1.77 2.34 2.56 1.47 1.41 1.07 1.31 2.38 2.13 1.11 0.86 0.77 0.78 0.68 0.63 0.76 1.04 1.29 0.52 0.83 1.32 1.21 0.74 0.59 0.90 0.70 0.22 0.28 0.12 0.04 0.13 0.18 0.19
0.89 0.79 0.79 0.75 0.82 0.90 0.87 0.88 0.90 0.83 1.02 1.36 1.37 1.32 1.78 2.19 2.29 1.55 1.47 1.66 2.15 2.62 1.97 1.39 1.24 0.88 0.77 0.58 0.62 0.99 1.11 1.06 0.68 0.88 0.87 0.80 0.64 0.57 0.65 0.72 0.41 0.28 0.28 0.25 0.20 0.51 0.55
0.93 0.78 0.81 0.80 0.84 0.87 0.87 0.93 1.01 1.10 1.17 1.19 1.23 1.27 1.63 1.70 1.89 1.90 2.39 2.25 2.54 1.64 1.15 1.17 1.06 0.82 0.75 0.68 0.80 0.88 1.23 1.01 1.41 1.18 1.39 1.47 0.98 0.59 0.50 0.99 0.91 0.73 0.98 1.33 0.97 1.15 0.66
1.04 1.08 0.98 0.94 0.95 0.94 1.08 1.05 1.25 1.38 1.28 1.29 1.36 1.31 1.60 1.41 2.03 2.02 3.03 2.19 1.66 0.68 0.99 0.90 0.39 0.47 0.53 0.30 0.57 0.73 0.89 0.69 0.59 0.39 0.82 1.12 1.15 0.74 0.55 0.99 1.32 0.91 1.09 1.35 0.98 0.53 0.29
0.97 1.08 1.09 1.07 1.17 1.22 1.31 1.19 1.17 1.26 1.30 1.68 1.67 1.94 2.73 1.54 2.11 2.69 2.77 2.20 1.05 0.87 1.03 0.63 0.50 0.41 0.38 0.27 0.57 0.63 0.64 0.30 0.24 0.15 0.61 0.66 0.61 0.42 0.36 0.47 0.87 1.16 1.21 0.72 0.89 0.44 0.35
1.08 1.01 1.15 1.28 1.24 1.33 1.35 1.27 1.31 1.27 1.50 1.84 1.84 2.12 2.67 1.82 1.84 3.38 3.11 1.79 0.92 0.73 0.51 0.31 0.36 0.22 0.15 0.21 0.50 0.45 0.44 0.16 0.09 0.02 0.20 0.47 0.78 0.50 0.56 0.67 0.89 0.98 0.64 0.89 1.36 0.88 0.41
1.33 1.24 1.22 1.35 1.32 1.34 1.41 1.37 1.39 1.52 1.74 1.70 1.45 2.59 2.14 2.40 2.58 3.78 2.93 1.56 0.79 0.38 0.43 0.35 0.11 0.11 0.05 0.05 0.30 0.21 0.21 0.09 0.03 0.01 0.13 0.57 0.93 0.71 0.90 0.96 0.67 0.95 1.19 0.73 0.91 0.48 0.55
1.32 1.47 1.49 1.50 1.48 1.33 1.51 1.41 1.16 1.48 1.78 1.88 1.59 2.08 1.97 2.62 3.52 2.63 2.08 1.63 0.77 0.37 0.38 0.36 0.16 0.06 0.05 0.03 0.18 0.13 0.07 0.06 0.03 0.04 0.19 0.55 1.06 0.83 0.41 0.41 0.23 0.53 0.62 0.74 0.86 0.48 0.43
1.15 1.33 1.50 1.56 1.39 1.28 1.40 1.54 1.26 1.39 2.33 2.52 1.86 2.26 2.91 1.88 1.66 1.39 1.64 1.17 0.64 0.39 0.37 0.35 0.11 0.04 0.02 0.04 0.08 0.03 0.06 0.01 0.03 0.11 0.29 0.66 1.36 1.09 0.64 0.98 0.67 0.84 0.49 0.73 1.25 1.27 0.85
1.43 1.20 1.27 1.25 1.32 1.29 1.35 1.19 1.15 1.25 1.72 2.16 1.87 2.07 3.56 2.60 0.92 1.01 1.18 1.00 0.69 0.35 0.28 0.30 0.15 0.07 0.06 0.05 0.03 0.02 0.07 0.03 0.01 0.08 0.30 0.86 1.04 0.84 0.63 0.86 0.88 0.64 0.44 0.73 1.74 2.13 0.67
1.46 1.32 1.25 1.27 1.35 1.38 1.72 1.39 1.11 1.21 1.35 1.77 1.46 0.79 0.77 0.89 0.61 0.55 0.88 0.75 0.61 0.52 0.32 0.28 0.19 0.09 0.06 0.06 0.03 0.03 0.04 0.04 0.06 0.06 0.27 1.08 1.40 1.01 0.43 0.17 0.67 0.68 0.52 0.76 1.52 0.99 1.09
1.37 1.44 1.46 1.79 1.64 1.88 2.12 1.72 1.26 1.50 2.10 1.74 1.09 0.50 0.18 0.12 0.08 0.25 0.76 0.89 0.63 0.53 0.41 0.21 0.11 0.05 0.07 0.04 0.04 0.05 0.07 0.10 0.10 0.10 0.26 0.74 1.34 1.29 0.83 0.36 0.36 0.62 0.61 0.81 0.83 0.77 0.84
1.20 1.25 1.35 1.43 1.57 1.54 1.40 1.57 1.70 1.83 2.46 1.67 0.91 0.42 0.26 0.18 0.07 0.15 0.45 0.66 0.52 0.47 0.30 0.10 0.08 0.12 0.10 0.05 0.04 0.04 0.07 0.12 0.27 0.29 0.32 0.65 0.95 1.18 0.74 0.48 0.70 1.12 0.77 0.60 0.38 0.37 0.49
1.33 1.29 1.05 1.06 1.13 1.35 1.42 1.43 1.38 1.33 1.52 1.18 0.81 0.68 0.55 0.24 0.08 0.07 0.20 0.41 0.43 0.38 0.37 0.09 0.10 0.11 0.07 0.05 0.06 0.07 0.14 0.09 0.09 0.19 0.33 0.32 0.58 0.98 0.80 0.74 1.05 0.63 0.51 0.35 0.36 0.36 0.32
1.12 1.09 1.06 0.91 0.89 1.02 1.21 1.46 1.09 0.98 1.13 0.75 0.65 0.67 0.49 0.24 0.09 0.05 0.16 0.36 0.49 0.47 0.52 0.26 0.09 0.07 0.09 0.13 0.22 0.24 0.31 0.37 0.20 0.11 0.05 0.23 0.40 0.72 0.55 0.41 0.25 0.02 0.05 0.17 0.23 0.37 0.20
1.05 0.95 1.04 1.20 0.94 0.82 0.96 1.14 0.89 0.80 0.78 0.53 0.56 0.60 0.71 0.39 0.14 0.04 0.07 0.17 0.47 0.47 0.54 0.41 0.24 0.15 0.25 0.34 0.35 0.39 0.31 0.26 0.25 0.29 0.20 0.07 0.24 0.78 0.47 0.43 0.09 0.00 0.00 0.00 0.03 0.21 0.30
1.39 1.02 0.82 0.91 1.12 0.89 0.94 1.08 0.89 0.77 0.77 0.55 0.55 0.57 0.62 0.46 0.13 0.03 0.06 0.09 0.32 0.55 0.61 0.48 0.41 0.21 0.36 0.64 0.56 0.37 0.14 0.09 0.16 0.22 0.14 0.34 0.37 0.48 0.38 0.45 0.04 0.00 0.00 0.00 0.04 0.13 0.12
1.32 1.30 1.17 0.72 0.66 0.90 1.04 1.13 1.14 0.93 0.88 0.69 0.45 0.43 0.52 0.46 0.18 0.05 0.05 0.07 0.21 0.45 0.66 0.59 0.79 0.55 0.57 0.87 0.81 0.45 0.18 0.08 0.07 0.09 0.06 0.15 0.27 0.29 0.27 0.40 0.10 0.00 0.00 0.01 0.02 0.00 0.00
1.38 0.98 0.96 0.91 0.64 0.58 0.83 0.96 1.13 0.97 0.90 0.90 0.54 0.38 0.49 0.63 0.28 0.06 0.03 0.03 0.07 0.29 0.67 0.72 0.73 0.54 0.68 0.72 0.61 0.52 0.39 0.32 0.15 0.12 0.02 0.06 0.06 0.10 0.12 0.08 0.01 0.01 0.00 0.00 0.00 0.00 0.00